STARLINK-1483 (45743 NORAD) Tracking and Keplerian Element Data

This shows tracking and keplerian element data for the satellite.

Feedback or suggestion? Click here.




ElementValue
Catalog45743
NameSTARLINK-1483
Epoch Orbit946
Epoch Day219.16667824
Epoch Year2020
RAAN41.3599
Inclination53.0026
Eccentricity0.0001429
Argument of Perigee102.9746
Mean Anonmoly50.6443
Mean Motion15.05589969
Decay Rate-0.00035012
L11 45743U 20038P 20219.16667824 -.00035012 00000-0 -23950-2 0 9994
L22 45743 53.0026 41.3599 0001429 102.9746 50.6443 15.05589969 9465

Live tracking and technical data element details for STARLINK-1483 (NORAD 45743). STARLINK-1483 can be tracked NOW for your location showing map with azimuth and elevation plus other details from your city location.

Track the satellite on the map from your city or location and see movement details for azimuth, elevation, latitude, longitude, range, height, and movement on the map or in text.







IsCatalogInMostPopularTable: catalog: 45743, numindb: 9
Update: records affected: 1



GetName: 45743 STARLINK-1483

Hit Count: updated at: Fri, 07 Aug 2020 23:56:31 GMT